Tracking 29091 objects as of 17-Jul-2024
HD Live streaming from Space Station
objects crossing your sky now

CRRES DEB (CANISTER)

Track CRRES DEB (CANISTER) now!


NORAD ID: 21590
Int'l Code: 1990-065F
Perigee: 368.6 km
Apogee: 30,837.2 km
Inclination: 20.3 °
Period: 540.3 minutes
Semi major axis: 21973 km
RCS: 0.1267 m2 (medium)
Launch date: July 25, 1990
Source: United States (US)
Launch site: AIR FORCE EASTERN TEST RANGE (AFETR)

Note: This is SATELLITE DEBRIS
Your satellite tracking list
Your tracking list is empty




NASA's NSSDC Master Catalog

Two Line Element Set (TLE):
1 21590U 90065F   24198.34595998  .00000484  00000-0  47767-3 0  9993
2 21590  20.3254 302.6718 6932920  63.0940 350.1054  2.66527959110871
Source of the keplerian elements: AFSPC